Flag Weather past 2 weeks in Fetsund, Norway

Now
35 °F

Chilly.


Feels Like: 35 °F
Forecast: 30 / 36 °F
Wind: No wind

Location: Oslo-Blindern

Current Time: Nov 22, 2014 at 4:16:03 AM

Latest Report: Nov 22, 2014 at 3:00 AM


Visibility: N/A

Pressure: 30.32 "Hg

Humidity: 90%

Dew point: 33 °F

Location of FetsundLocation

Historic Weather in Fetsund — Graph

°F

Fetsund temperature yesterday

Maximum temperature yesterday: 37 °F (at 1:00 PM)
Minimum temperature yesterday: 35 °F (at 5:00 AM)
Average temperature yesterday: 36 °F

Past Weeks' High & Low Weather Summary

 TemperatureHumidityPressure
High50 °F (Nov 9, 2:00 PM)100% (Nov 11, 1:00 AM)30.52 "Hg (Nov 11, 1:00 AM)
Low30 °F (Nov 7, 5:00 AM)72% (Nov 17, 11:00 AM)29.66 "Hg (Nov 10, 9:00 PM)
Average41 °F88%30.12 "Hg
* Reported Nov 7 3:00 AM — Nov 22 3:00 AM, Fetsund, Weather by CustomWeather, © 2014

Note: Actual official high and low records may vary slightly from our data, if they occured in-between our weather recording intervals... More about our weather records

Advertising

Fetsund weather history for previous 24 hours

 ConditionsComfort  
Time TempWeatherWind HumidityBarometerVisibility
3:00 AM
Nov 22
35 °FChilly.No wind90%30.32 "HgN/A
2:00 AM35 °FChilly.1 mph89%30.33 "HgN/A
1:00 AM36 °FOvercast.2 mph87%30.34 "Hg40 mi
12:00 AM36 °FChilly.1 mph88%30.34 "HgN/A
11:00 PM
Nov 21
36 °FChilly.1 mph88%30.34 "HgN/A
10:00 PM36 °FOvercast.1 mph85%30.35 "Hg40 mi
9:00 PM36 °FChilly.2 mph85%30.35 "HgN/A
8:00 PM36 °FChilly.2 mph85%30.35 "HgN/A
7:00 PM36 °FOvercast.1 mph85%30.34 "Hg37 mi
6:00 PM37 °FChilly.1 mph85%30.35 "HgN/A
5:00 PM37 °FChilly.1 mph83%30.35 "HgN/A
4:00 PM37 °FOvercast.2 mph82%30.36 "Hg19 mi
3:00 PM37 °FChilly.1 mph83%30.36 "HgN/A
2:00 PM37 °FChilly.2 mph82%30.37 "HgN/A
1:00 PM37 °FOvercast.2 mph82%30.39 "Hg40 mi
12:00 PM37 °FChilly.2 mph82%30.39 "HgN/A
11:00 AM37 °FChilly.1 mph83%30.40 "HgN/A
10:00 AM36 °FOvercast.1 mph84%30.40 "Hg40 mi
9:00 AM36 °FChilly.1 mph83%30.40 "HgN/A
8:00 AM36 °FChilly.1 mph84%30.40 "HgN/A
7:00 AM36 °FOvercast.1 mph84%30.40 "Hg34 mi
6:00 AM36 °FChilly.1 mph85%30.40 "HgN/A
5:00 AM35 °FChilly.1 mph86%30.42 "HgN/A
Weather by CustomWeather, © 2014

See weather overviewHow to use our weather pages